Flag for Greece Weather past 2 weeks in Glyfada, Greece

Now
59 °F

Partly sunny.


Feels Like: 57 °F
Forecast: 54 / 60 °F
Wind: 12 mph from Southwest

Location: Eleftherios Venizelos International Airport

Current Time: Mar 5, 2015 at 2:54:25 PM

Latest Report: Mar 5, 2015 at 2:20 PM


Visibility: N/A

Pressure: 30.07 "Hg

Humidity: 68%

Dew point: 48 °F

Location of GlyfadaLocation

Historic Weather in Glyfada — Graph

°F

Glyfada temperature yesterday

Maximum temperature yesterday: 59 °F (at 11:50 AM)
Minimum temperature yesterday: 41 °F (at 11:50 PM)
Average temperature yesterday: 52 °F

Past Weeks' High & Low Weather Summary

 TemperatureHumidityPressure
High70 °F (Mar 3, 2:50 PM)93% (Mar 1, 5:20 AM)30.45 "Hg (Mar 1, 5:20 AM)
Low32 °F (Feb 18, 10:20 PM)29% (Feb 19, 3:50 PM)29.65 "Hg (Feb 27, 3:50 PM)
Average51 °F69%30.01 "Hg
* Reported Feb 18 1:20 PM — Mar 5 1:50 PM, Glyfada, Weather by CustomWeather, © 2015

Note: Actual official high and low records may vary slightly from our data, if they occured in-between our weather recording intervals... More about our weather records

Advertising

Glyfada weather history for previous 24 hours

 ConditionsComfort  
Time TempWeatherWind HumidityBarometerVisibility
1:50 PM
Thu, Mar 5
59 °FPartly sunny.15 mph63%30.07 "HgN/A
1:20 PM59 °FPartly sunny.14 mph63%30.07 "HgN/A
12:50 PM59 °FPartly sunny.13 mph68%30.09 "HgN/A
12:20 PM59 °FPartly sunny.14 mph63%30.09 "HgN/A
11:50 AM59 °FScattered clouds.12 mph63%30.09 "HgN/A
11:20 AM59 °FScattered clouds.9 mph59%30.12 "HgN/A
10:50 AM57 °FScattered clouds.12 mph63%30.12 "HgN/A
10:20 AM57 °FScattered clouds.7 mph63%30.12 "HgN/A
9:50 AM57 °FScattered clouds.6 mph59%30.12 "HgN/A
9:20 AM55 °FScattered clouds.3 mph63%30.15 "HgN/A
8:50 AM52 °FScattered clouds.No wind82%30.15 "HgN/A
8:20 AM46 °FPartly sunny.No wind87%30.15 "HgN/A
7:50 AM45 °FPartly sunny.No wind87%30.15 "HgN/A
7:20 AM43 °FPartly sunny.1 mph87%30.15 "HgN/A
6:50 AM41 °FPassing clouds.3 mph87%30.15 "HgN/A
6:20 AM39 °FPassing clouds.No wind87%30.15 "HgN/A
5:20 AM39 °FPassing clouds.2 mph87%30.18 "HgN/A
4:50 AM41 °FPassing clouds.3 mph87%30.18 "HgN/A
3:50 AM41 °FPassing clouds.1 mph81%30.18 "HgN/A
3:20 AM41 °FPassing clouds.2 mph87%30.18 "HgN/A
2:50 AM41 °FPassing clouds.2 mph81%30.18 "HgN/A
2:20 AM43 °FPassing clouds.No wind81%30.18 "HgN/A
1:50 AM39 °FPassing clouds.1 mph87%30.21 "HgN/A
1:20 AM41 °FPassing clouds.No wind87%30.21 "HgN/A
12:50 AM41 °FPassing clouds.3 mph81%30.21 "HgN/A
12:20 AM41 °FPassing clouds.3 mph81%30.24 "HgN/A
11:50 PM
Wed, Mar 4
41 °FPassing clouds.3 mph81%30.24 "HgN/A
11:20 PM43 °FPassing clouds.3 mph76%30.24 "HgN/A
10:50 PM45 °FPassing clouds.3 mph71%30.24 "HgN/A
10:20 PM45 °FPassing clouds.2 mph76%30.27 "HgN/A
9:50 PM46 °FPassing clouds.1 mph71%30.27 "HgN/A
9:20 PM48 °FPassing clouds.No wind66%30.27 "HgN/A
8:50 PM48 °FPassing clouds.1 mph66%30.27 "HgN/A
8:20 PM48 °FPassing clouds.5 mph66%30.27 "HgN/A
7:50 PM48 °FPassing clouds.6 mph66%30.27 "HgN/A
7:20 PM48 °FPassing clouds.6 mph66%30.27 "HgN/A
6:50 PM50 °FPassing clouds.5 mph67%30.27 "HgN/A
6:20 PM52 °FPassing clouds.7 mph62%30.27 "HgN/A
5:50 PM54 °FPassing clouds.9 mph54%30.24 "HgN/A
5:20 PM55 °FPassing clouds.13 mph51%30.27 "HgN/A
4:50 PM55 °FPassing clouds.15 mph59%30.27 "HgN/A
4:20 PM57 °FPassing clouds.14 mph55%30.27 "HgN/A
3:50 PM57 °FPassing clouds.14 mph55%30.27 "HgN/A
3:20 PM55 °FPassing clouds.13 mph59%30.27 "HgN/A
2:50 PM57 °FPassing clouds.15 mph55%30.27 "HgN/A
2:20 PM57 °FPassing clouds.15 mph55%30.27 "HgN/A
Weather by CustomWeather, © 2015

See weather overviewHow to use our weather pages